Weather past 2 weeks in Saipan, Northern Mariana Islands

Now
76 °F

Thunderstorms. Overcast.


Feels Like: 75 °F
Forecast: 78 / 85 °F
Wind: 12 mph from East

Location: Saipan International Airport

Current Time: Aug 30, 2014 at 7:01:55 AM

Latest Report: Aug 30, 2014 at 4:54 AM


Visibility: 5 mi

Pressure: 29.87 "Hg

Humidity: 94%

Dew point: 74 °F

Location of SaipanLocation

Historic Weather in Saipan — Graph

°F

Saipan temperature yesterday

Maximum temperature yesterday: 89 °F (at 2:54 PM)
Minimum temperature yesterday: 81 °F (at 11:09 PM)
Average temperature yesterday: 84 °F

Past Weeks' High & Low Weather Summary

 TemperatureHumidityPressure
High89 °F (Aug 24, 2:54 PM)94% (Aug 17, 3:54 AM)29.99 "Hg (Aug 17, 3:54 AM)
Low76 °F (Aug 30, 4:54 AM)67% (Aug 21, 2:54 PM)29.79 "Hg (Aug 21, 5:12 PM)
Average83 °F82%29.91 "Hg
* Reported Aug 15 4:54 AM — Aug 30 4:54 AM, Saipan, Weather by CustomWeather, © 2014

Note: Actual official high and low records may vary slightly from our data, if they occured in-between our weather recording intervals... More about our weather records

Advertising

Saipan weather history for previous 24 hours

 ConditionsComfort  
Time TempWeatherWind HumidityBarometerVisibility
4:54 AM
Aug 30
76 °FThunderstorms. Overcast.12 mph94%29.87 "Hg5 mi
3:54 AM78 °FLight rain. Partly cloudy.12 mph87%29.85 "Hg9 mi
2:54 AM80 °FLight rain. Passing clouds.9 mph90%29.84 "Hg10 mi
1:54 AM80 °FPassing clouds.6 mph87%29.85 "Hg10 mi
12:54 AM79 °FHeavy rain. Fog.12 mph90%29.88 "Hg4 mi
12:45 AM81 °FLight rain. Fog.8 mph84%29.82 "Hg5 mi
11:54 PM
Aug 29
81 °FPartly cloudy.5 mph88%29.89 "Hg10 mi
11:09 PM81 °FPassing clouds.6 mph94%29.84 "Hg10 mi
10:54 PM81 °FPartly cloudy.6 mph91%29.90 "Hg10 mi
9:54 PM83 °FPassing clouds.9 mph85%29.90 "Hg10 mi
8:54 PM83 °FPassing clouds.9 mph85%29.89 "Hg10 mi
7:54 PM83 °FPassing clouds.12 mph85%29.88 "Hg10 mi
6:54 PM82 °FClear.6 mph85%29.86 "Hg10 mi
5:54 PM83 °FSunny.8 mph77%29.85 "Hg10 mi
4:54 PM85 °FPassing clouds.12 mph80%29.84 "Hg10 mi
3:54 PM88 °FPassing clouds.13 mph75%29.83 "Hg10 mi
2:54 PM89 °FSunny.13 mph70%29.83 "Hg10 mi
1:54 PM88 °FPassing clouds.16 mph73%29.84 "Hg10 mi
12:54 PM87 °FPassing clouds.14 mph75%29.86 "Hg10 mi
11:54 AM85 °FLight rain. Broken clouds.14 mph88%29.89 "Hg10 mi
10:54 AM88 °FScattered clouds.12 mph73%29.90 "Hg10 mi
9:54 AM85 °FPassing clouds.14 mph77%29.90 "Hg10 mi
8:54 AM86 °FSunny.13 mph75%29.89 "Hg10 mi
7:54 AM84 °FScattered clouds.14 mph83%29.91 "Hg10 mi
Weather by CustomWeather, © 2014

See weather overviewHow to use our weather pages